Wind_Speed
19 19 20 20 20 20 21 21 22 23 24 25 25 26 26 27 27 27 28 29 30 30 29 28 27 28 29 30 30 28 26 24 22 20 19 18 17 17 17 18 19 21 24 26 29 31 32 33 34 34 35 35 35 35 35 35 32 29 28 34 41 41 36 31 30 32 34 35 34 34 34 33 32 31 30 29 29 28 28 28 27 26 24 21 18 16
19 19 19 19 19 19 20 20 21 22 23 23 24 24 25 26 26 26 27 27 28 28 27 26 26 28 31 32 31 30 28 25 22 20 18 16 16 15 15 16 18 20 22 24 26 28 30 31 31 32 32 32 32 31 29 27 25 25 30 37 39 36 32 32 33 34 35 35 35 34 33 32 31 30 30 29 28 27 26 26 25 24 23 21 18 15
18 18 18 18 19 19 19 19 20 21 21 22 23 23 24 25 25 25 25 25 26 26 25 24 25 27 30 32 32 30 28 26 23 20 17 15 14 14 14 14 16 17 20 22 24 26 27 28 29 30 30 31 30 28 23 19 20 25 33 36 35 33 32 33 35 35 36 35 34 33 32 31 30 29 29 27 25 24 24 24 24 23 22 21 19 16
17 17 17 18 18 18 18 18 19 19 20 21 22 22 23 24 24 24 24 23 23 23 23 22 23 25 28 30 30 30 28 26 23 20 17 15 13 12 12 13 13 15 16 19 21 23 24 26 27 28 28 29 29 27 23 19 20 25 30 32 32 32 33 34 35 35 35 34 32 31 30 29 28 28 26 24 23 23 24 24 24 23 22 21 20 18
16 16 16 17 17 17 17 17 18 19 20 20 21 22 22 23 23 23 23 22 22 21 21 21 21 23 25 27 28 27 26 24 22 20 17 15 13 11 11 11 12 12 14 15 17 19 22 23 25 26 27 27 28 28 26 25 25 27 29 30 31 32 32 33 33 32 31 31 30 29 28 27 27 26 24 23 23 25 26 26 25 23 22 21 20 19
15 15 15 16 16 17 17 17 18 18 19 20 21 21 21 22 22 22 22 22 21 21 21 21 21 22 24 25 25 25 23 22 21 20 18 15 13 11 10 10 11 12 13 14 15 17 20 22 23 24 24 25 26 28 29 29 29 30 30 31 32 32 32 31 29 28 28 28 28 28 27 27 26 25 24 24 26 27 28 27 25 23 21 20 20 19
13 14 14 15 16 16 17 17 18 18 19 20 20 21 21 21 21 21 21 21 21 21 21 21 21 22 23 24 24 24 23 21 21 20 18 16 13 11 10 9 10 11 12 14 16 18 20 20 20 19 20 21 24 27 31 32 32 31 31 32 32 32 31 28 24 22 22 24 26 27 27 27 26 25 25 26 28 29 28 27 24 22 20 20 19 19
12 13 13 14 15 16 17 17 18 19 20 20 21 21 21 21 21 21 21 21 21 21 20 21 21 22 22 23 23 23 23 22 22 21 19 17 14 12 10 9 9 10 12 14 17 19 19 17 13 12 16 20 23 28 32 33 31 30 30 30 30 29 27 23 19 16 17 20 23 25 27 26 25 25 25 27 27 27 26 23 21 20 19 19 19 19
11 11 12 13 14 15 16 17 18 19 20 21 21 22 22 21 21 21 21 20 20 20 19 19 20 21 22 22 23 23 23 23 22 21 20 17 15 13 10 9 8 9 11 14 16 17 15 10 6 9 17 23 27 30 33 32 29 27 27 26 25 24 22 19 16 14 15 18 21 24 26 25 25 24 25 25 24 23 21 20 18 18 18 18 18 19
10 11 11 12 13 14 15 17 18 19 20 21 22 23 23 22 22 21 21 20 20 19 19 18 18 19 20 21 22 22 22 22 22 21 20 18 16 13 11 9 8 9 11 12 14 13 10 4 7 17 28 33 34 34 32 29 26 24 23 21 20 19 18 18 18 19 20 22 24 25 25 24 24 23 23 22 21 20 19 18 17 17 17 17 18 19
10 10 11 11 12 13 15 16 18 19 20 22 23 23 23 22 22 22 21 21 20 20 18 18 17 17 19 20 21 21 21 21 21 21 20 19 16 14 11 9 7 7 8 10 10 9 4 1 7 21 36 39 38 36 33 30 26 23 21 21 20 21 22 24 25 26 27 27 26 24 22 21 21 21 21 20 19 18 18 17 17 16 16 17 18 19
10 11 11 11 12 13 15 16 18 19 20 21 22 22 22 22 22 22 22 22 21 20 19 17 17 16 17 18 19 20 20 20 20 20 20 19 18 15 12 9 6 4 4 4 5 4 4 4 8 24 36 38 35 32 31 29 26 24 23 24 26 28 28 29 28 27 27 26 25 22 20 19 19 20 20 19 19 18 18 17 16 16 16 17 17 19
11 11 11 12 13 14 15 16 17 18 19 19 20 20 21 21 21 22 22 22 22 21 19 18 17 16 15 16 17 18 19 19 18 18 18 19 18 17 15 11 8 4 1 2 4 5 6 0 13 26 33 32 29 26 26 26 25 25 25 26 28 28 27 25 24 23 23 23 23 21 20 19 19 19 19 19 18 17 16 16 15 15 15 16 16 17
10 11 11 12 13 13 14 15 16 16 17 17 18 18 19 20 21 22 22 22 22 22 21 20 18 17 15 14 15 16 17 17 18 17 17 17 18 18 17 16 13 10 7 4 1 2 2 6 17 27 31 29 25 21 20 21 21 23 24 24 24 23 22 21 21 21 21 22 21 21 19 18 18 18 18 18 17 15 14 14 13 13 13 14 15 16
10 10 10 11 12 13 13 14 14 15 15 16 17 18 19 20 20 21 22 22 23 23 23 22 21 19 17 14 13 13 14 15 16 16 16 15 16 17 18 18 18 18 17 15 13 9 7 11 19 26 30 29 25 22 20 18 18 18 19 19 20 21 21 21 22 22 21 21 20 19 17 16 15 15 15 15 13 12 11 11 10 10 11 12 14 15
9 9 10 10 11 12 12 13 14 14 15 16 17 17 18 19 20 21 21 22 23 23 24 24 23 21 19 16 14 13 12 13 14 15 15 14 13 14 15 16 16 17 17 16 15 14 12 12 17 23 27 28 28 26 25 22 20 18 17 18 20 22 22 21 20 19 18 17 16 16 14 13 13 12 12 11 11 10 9 8 7 8 9 11 14 16
9 9 9 10 10 11 12 13 13 14 15 16 16 17 18 18 19 20 21 22 23 23 24 24 24 22 21 18 16 13 12 11 11 12 13 12 11 11 11 11 11 12 13 14 12 10 11 12 14 18 22 25 26 26 26 25 24 23 21 21 21 19 18 16 15 13 13 12 12 12 12 12 12 11 11 9 9 8 8 7 6 6 9 12 15 18
9 9 9 9 10 11 12 12 13 14 14 15 16 16 17 18 18 19 20 21 22 22 23 23 23 23 22 20 18 16 13 12 11 10 11 11 10 9 8 7 8 11 14 15 12 9 10 12 14 16 18 19 20 21 21 20 20 19 18 17 14 12 10 10 10 9 9 9 9 10 10 11 11 10 9 8 8 8 7 6 5 6 10 13 17 19
9 9 9 9 10 10 11 12 13 13 14 14 15 15 16 17 17 18 19 20 20 21 21 22 22 22 21 21 20 18 16 14 12 11 10 10 9 8 6 5 7 11 15 16 14 12 11 12 13 15 16 17 17 16 15 14 13 12 11 10 9 8 7 8 8 8 7 7 7 7 7 8 7 7 6 6 7 7 6 5 5 6 10 14 18 20
9 9 9 9 9 10 10 11 12 12 13 14 14 15 15 16 17 17 18 18 19 19 20 20 20 21 21 21 20 19 18 16 15 14 12 11 9 8 6 5 7 10 15 16 14 13 12 10 9 9 10 11 12 12 10 9 9 9 8 7 6 5 5 5 6 6 5 5 4 4 4 3 3 3 4 5 6 6 6 5 5 6 9 14 18 20
10 10 9 9 9 9 10 10 11 12 12 13 13 14 14 15 15 16 16 17 18 18 19 19 19 19 20 20 20 20 19 18 17 16 15 13 11 9 7 6 7 9 13 15 15 13 11 8 6 5 4 4 5 6 7 7 7 7 7 6 5 4 3 3 3 2 2 2 2 2 2 2 2 2 3 4 5 6 6 6 6 7 9 13 17 20
11 11 10 10 9 9 9 10 10 11 11 12 12 13 13 14 14 15 15 16 16 17 17 18 18 18 19 19 19 19 19 19 18 17 16 15 14 12 10 8 8 9 11 14 15 13 11 8 5 3 2 1 2 3 3 4 5 6 6 6 6 5 5 5 4 3 3 3 2 2 2 2 2 3 4 5 6 7 7 7 8 8 9 12 16 19
12 12 11 11 10 10 9 9 9 10 10 11 11 12 12 13 13 14 14 15 16 16 16 17 17 17 18 18 18 19 19 18 18 17 17 16 16 14 12 10 9 9 10 12 14 14 12 10 7 5 4 3 2 2 2 3 4 6 7 8 8 8 8 7 6 6 5 5 5 5 5 5 5 5 6 6 7 8 8 8 9 9 10 12 15 18
13 13 12 12 11 10 10 9 9 9 9 10 10 11 11 12 12 13 13 14 15 15 15 15 16 16 17 17 18 18 18 18 17 17 17 16 16 15 14 13 12 11 11 12 12 13 13 12 10 8 6 5 5 4 3 3 4 6 8 9 11 12 11 10 9 8 8 8 8 9 9 9 8 8 8 8 8 9 9 9 10 10 11 12 14 16
14 14 13 13 12 12 11 10 10 9 9 9 9 10 10 11 11 11 12 13 13 14 14 15 15 16 16 17 17 17 17 17 17 17 17 16 16 15 15 14 14 14 13 13 13 12 12 12 12 11 9 7 6 6 6 5 5 6 8 10 12 13 13 13 12 11 11 11 12 12 13 13 13 12 11 11 10 10 10 10 10 11 12 13 14 16
15 15 14 14 13 13 12 11 10 10 9 9 9 9 9 9 10 10 10 11 12 13 13 14 15 15 16 16 16 17 17 17 17 17 16 16 16 16 15 15 15 15 15 15 15 14 12 11 11 11 11 10 8 6 6 6 6 6 7 9 10 12 13 13 13 13 13 13 14 14 15 15 15 14 14 13 12 12 11 11 11 11 12 13 14 16
15 15 15 15 14 14 13 12 11 11 10 9 9 9 9 9 9 9 9 10 11 12 12 13 14 15 15 15 15 16 16 16 16 16 16 16 16 16 16 15 15 15 15 16 16 15 14 12 10 9 9 9 9 8 6 6 5 4 4 5 7 8 10 11 12 12 13 13 14 15 15 16 16 16 15 15 14 13 13 13 13 13 13 14 14 16
16 16 16 15 15 15 14 13 13 12 11 11 10 9 9 9 9 9 9 9 10 10 11 12 13 13 14 14 14 14 15 15 16 16 16 16 16 16 16 16 15 15 15 16 16 15 15 13 11 9 8 7 7 7 6 5 4 4 3 2 2 3 4 5 7 8 9 10 11 12 13 14 15 16 16 16 15 15 15 15 15 15 15 15 15 16
17 16 16 16 16 15 15 14 14 13 12 12 11 10 10 9 9 9 9 9 9 9 10 11 11 12 12 13 13 13 14 14 15 15 15 16 16 16 16 16 16 16 16 15 15 15 15 14 13 11 10 9 8 7 7 6 5 4 3 2 2 1 2 2 3 4 5 6 7 8 9 10 12 13 14 15 16 16 16 16 16 16 17 17 17 17
17 17 17 17 16 16 16 15 15 14 13 13 12 12 11 10 10 10 9 9 9 9 9 10 10 11 11 11 12 12 13 13 14 14 15 15 15 16 16 16 16 16 16 16 15 15 15 14 14 13 12 11 10 10 9 9 8 7 7 7 6 6 6 6 6 6 6 6 6 7 7 8 9 10 11 12 13 14 14 15 16 16 17 17 18 18
17 17 17 17 17 17 16 16 15 15 14 14 14 13 12 12 11 10 10 10 9 9 9 10 10 10 10 10 11 11 12 12 12 13 13 14 14 15 15 16 16 16 16 16 16 16 15 15 14 14 13 12 11 11 11 10 10 10 9 9 9 9 10 10 10 10 10 10 10 9 9 10 10 10 10 10 11 11 12 13 14 15 15 16 17 18
18 18 18 18 18 17 17 17 16 16 16 15 15 14 14 13 13 12 11 11 10 10 10 10 10 10 10 10 10 10 11 11 11 12 12 12 13 14 14 15 15 15 16 16 15 15 15 15 15 14 14 13 12 12 11 11 11 11 11 11 11 11 11 11 11 11 12 12 12 12 12 13 13 12 12 12 12 12 12 12 13 13 14 15 16 17
18 18 18 18 18 18 18 17 17 17 16 16 16 16 15 15 14 13 13 12 11 11 11 11 11 11 11 10 10 10 10 11 11 11 11 11 12 12 13 13 14 14 15 15 15 15 15 15 15 15 14 13 13 12 12 11 11 11 11 11 12 12 12 12 12 12 12 13 13 13 14 14 14 15 15 15 15 14 14 14 14 14 14 15 15 16
18 18 18 18 18 18 18 18 18 18 17 17 17 17 16 16 15 15 14 13 13 12 12 11 11 11 11 11 11 11 11 11 11 11 11 11 11 11 11 12 12 13 13 14 14 14 15 15 15 15 15 14 14 13 12 11 11 11 12 12 12 12 13 13 13 13 13 13 13 13 14 14 15 15 15 16 16 16 16 16 16 16 16 16 16 16
18 18 18 18 18 19 19 19 18 18 18 18 18 17 17 17 16 16 15 14 14 13 13 12 12 12 12 12 12 12 12 11 11 11 11 11 11 11 11 11 11 12 12 13 13 14 14 14 14 14 14 14 14 14 13 12 12 11 11 11 12 12 13 13 14 14 14 14 14 14 14 15 15 15 16 16 17 17 17 17 18 18 18 18 18 18
18 18 18 18 19 19 19 19 19 19 19 18 18 18 18 17 17 17 16 16 15 14 14 13 13 13 13 13 13 13 13 13 12 12 12 12 12 12 12 12 12 12 12 13 13 13 14 14 14 14 14 14 14 14 14 13 13 12 12 12 12 12 13 14 14 15 15 15 15 15 15 16 16 16 16 16 17 17 18 18 18 19 19 19 20 20
18 18 18 18 19 19 19 19 19 19 19 19 19 18 18 18 18 17 17 16 16 15 15 14 14 14 14 14 14 14 14 14 14 14 13 13 13 13 13 13 13 13 13 13 14 14 15 15 15 15 15 15 15 15 15 15 15 14 14 14 13 13 14 14 14 15 15 16 16 16 17 17 17 17 17 17 18 18 18 19 19 19 20 20 21 21
18 18 18 18 19 19 19 19 19 19 19 19 19 19 18 18 18 17 17 17 16 16 16 15 15 15 15 15 15 15 15 15 15 15 15 15 15 14 15 15 15 15 15 15 15 16 16 16 16 16 17 17 17 17 17 16 16 16 16 15 15 15 15 15 15 16 16 16 17 17 18 18 18 18 18 18 19 19 19 19 20 20 21 21 21 22
18 18 18 19 19 19 19 19 19 19 19 19 19 18 18 18 18 18 17 17 17 17 16 16 16 16 16 15 15 15 15 16 16 16 16 16 16 16 16 17 17 17 18 18 18 17 17 18 18 18 18 18 18 18 18 18 17 17 17 17 17 16 16 16 17 17 17 17 18 18 18 19 19 19 19 20 20 20 20 21 21 21 22 22 22 23
19 19 19 19 19 19 19 19 19 19 19 19 18 18 18 18 18 18 17 17 17 17 17 17 17 17 17 16 16 16 16 16 16 16 17 17 17 18 18 19 19 20 20 20 20 20 19 19 19 19 19 19 19 19 19 18 18 18 18 18 18 17 17 17 17 18 18 18 19 19 19 20 20 20 21 21 21 21 21 22 22 22 23 23 23 24
20 20 20 20 20 20 20 20 20 19 19 19 19 18 18 18 18 18 18 18 18 18 18 18 18 18 17 17 17 17 17 17 17 17 17 18 18 19 20 20 21 22 22 22 22 22 21 21 20 20 20 19 19 19 19 19 19 19 19 19 19 19 18 18 18 18 19 19 19 20 20 21 21 21 22 22 22 22 23 23 23 23 24 24 24 25
20 20 20 20 21 21 21 21 20 20 20 20 19 19 19 19 19 18 18 18 18 19 19 19 19 18 18 18 18 18 18 17 18 18 18 19 19 20 21 22 23 23 24 24 24 24 23 22 22 21 21 20 20 20 20 19 19 19 20 20 20 20 19 19 19 19 19 19 19 20 20 21 21 22 23 23 23 24 24 24 24 24 25 25 25 25
21 21 21 21 21 21 22 22 21 21 21 21 21 20 20 20 20 20 20 20 20 20 20 20 19 19 19 19 19 18 18 18 18 19 19 20 21 21 22 23 24 25 25 25 25 25 24 24 23 22 21 21 20 20 20 20 20 20 20 20 20 20 20 20 20 20 20 20 20 20 20 21 21 22 23 23 24 25 25 25 25 25 26 26 26 26
22 22 22 22 22 22 23 23 22 22 22 22 22 21 21 21 21 21 21 21 21 21 21 20 20 20 20 19 19 19 19 19 19 20 20 21 22 23 24 25 26 26 27 26 26 25 25 24 23 23 22 22 21 21 21 21 21 21 21 21 21 21 21 21 21 21 21 21 21 21 21 21 21 22 23 23 24 25 25 26 26 27 27 27 27 27
23 23 23 23 23 23 23 23 23 23 23 23 23 22 22 22 22 22 22 22 22 22 21 21 21 20 20 20 20 19 19 20 20 21 21 22 23 24 25 26 27 28 28 28 27 26 25 24 24 23 23 22 22 22 21 21 21 21 21 22 22 22 22 22 22 22 22 22 22 22 21 21 22 22 22 23 24 24 25 26 27 27 28 28 28 28
23 23 24 24 24 24 24 24 24 24 24 24 24 23 23 23 23 22 22 22 22 22 22 22 21 21 20 20 20 20 20 20 21 22 23 24 25 26 27 28 28 29 29 28 28 27 26 25 24 24 23 23 23 23 22 22 22 22 22 22 22 23 23 22 22 22 22 23 23 22 22 22 22 22 23 23 23 24 25 26 26 27 28 28 29 29
24 24 24 25 25 25 25 25 25 25 25 25 24 24 24 24 23 23 23 23 23 22 22 22 21 21 21 20 20 20 21 21 22 23 24 26 27 28 29 29 30 29 29 28 28 27 26 25 24 24 24 24 24 24 24 23 23 23 23 23 23 23 23 23 23 23 23 23 23 23 23 23 23 23 23 23 24 24 25 26 26 27 28 29 29 30
25 25 25 25 26 26 26 26 26 25 25 25 25 25 25 24 24 24 24 23 23 23 22 22 21 21 21 21 21 21 22 23 24 25 26 28 29 30 30 30 30 30 29 28 27 26 26 25 25 25 25 24 25 25 25 24 24 24 24 24 24 24 24 24 24 24 24 24 24 24 24 24 24 24 24 24 25 25 25 26 26 27 28 29 29 30
26 26 26 26 26 27 26 26 26 26 26 26 25 25 25 25 25 24 24 24 23 23 22 22 21 21 21 21 22 22 23 24 26 27 28 30 30 31 31 31 31 30 29 28 27 26 26 25 25 25 25 25 25 25 26 25 25 25 25 25 25 25 25 25 25 25 25 25 25 25 25 25 25 25 25 25 25 26 26 26 27 27 28 28 29 30
27 27 27 27 27 27 27 27 27 27 26 26 26 26 26 25 25 25 24 24 24 23 22 22 22 22 22 22 23 24 25 27 28 29 30 31 32 32 32 31 31 30 29 28 27 27 26 26 26 26 26 27 27 26 26 26 26 26 26 26 26 26 26 26 26 26 25 25 25 25 25 25 25 25 25 26 26 26 26 27 27 27 28 28 29 30
28 28 28 28 28 28 28 28 27 27 27 27 26 26 26 26 25 25 25 24 24 23 23 23 22 23 23 24 25 26 28 29 30 31 32 32 32 32 32 31 30 30 29 28 28 27 27 27 27 27 28 28 28 27 27 27 27 27 26 26 26 26 26 26 26 26 26 26 26 25 25 25 25 25 25 26 26 26 27 27 28 28 28 29 29 30
Wind_Direction
336 337 338 341 344 347 350 352 355 357 360 2 4 5 7 9 10 11 12 12 13 15 18 22 28 32 34 34 33 32 32 32 33 38 44 51 57 66 75 86 97 107 115 123 129 134 139 143 147 151 155 159 163 168 174 179 185 187 182 170 166 168 176 182 186 189 192 196 200 204 207 209 211 213 217 222 226 228 229 229 231 234 237 238 238 237
339 341 343 345 348 351 353 355 357 360 2 4 5 7 10 12 13 15 16 15 14 15 20 26 32 35 35 34 33 33 32 32 32 36 43 51 60 69 79 90 100 109 117 123 129 134 138 142 146 150 155 159 164 168 174 180 180 172 163 160 163 171 178 183 186 190 193 197 200 203 206 208 212 216 220 224 226 226 226 229 233 237 239 237 234 232
344 345 347 349 352 354 356 358 0 2 4 5 7 9 12 14 16 19 20 18 15 15 20 26 31 33 32 31 31 32 32 32 32 34 40 49 59 70 81 92 103 112 119 126 131 135 139 143 148 152 156 161 164 168 171 173 166 158 156 160 167 174 180 183 186 189 193 197 201 204 207 211 215 219 221 222 222 223 226 232 237 240 240 237 232 229
348 350 352 353 356 357 360 2 3 5 6 8 9 11 14 16 19 22 24 22 18 16 19 23 26 27 27 28 31 32 32 30 31 33 38 45 56 68 80 92 103 113 121 128 133 138 142 146 150 154 158 162 166 167 168 168 162 158 159 166 172 176 179 181 185 189 194 199 202 206 210 214 217 219 218 218 219 222 228 235 240 242 241 237 233 229
352 354 356 358 360 2 3 5 6 8 9 11 12 13 15 17 20 22 25 24 22 20 20 21 22 23 25 29 33 36 34 30 30 33 39 45 53 65 78 90 101 111 120 129 136 141 146 149 153 156 159 164 167 170 171 174 173 169 168 170 174 176 178 181 185 190 196 202 207 209 212 213 213 212 212 213 217 223 230 236 239 241 240 237 235 232
356 359 1 2 5 6 8 9 10 12 13 14 15 16 17 18 20 22 24 25 24 23 22 21 21 23 27 32 37 40 39 35 32 34 41 46 53 62 75 90 102 112 122 131 139 145 150 153 156 160 164 169 172 173 174 178 179 176 173 172 174 176 177 181 186 193 201 206 208 208 209 208 207 207 207 211 216 223 229 234 237 239 239 238 237 236
358 1 4 8 9 11 12 13 15 16 17 18 18 18 19 19 20 21 23 24 25 25 24 23 23 27 31 36 40 42 42 40 38 39 44 49 54 61 73 89 105 118 129 138 146 151 155 159 164 171 179 183 182 178 176 177 177 175 173 172 172 174 177 180 184 189 195 201 203 203 204 206 206 207 208 211 216 222 227 232 236 238 239 239 239 239
0 4 8 12 14 16 17 18 19 20 21 21 21 21 21 21 21 21 21 22 23 24 25 25 27 30 35 39 41 43 43 42 42 43 47 52 56 61 70 88 107 125 138 147 153 158 163 169 178 187 189 187 180 174 172 172 172 171 170 170 171 174 177 180 181 181 183 192 198 202 205 208 210 210 211 213 217 221 226 231 235 239 240 242 243 243
360 5 9 14 17 20 22 23 23 23 24 24 23 23 22 22 22 21 21 21 22 22 24 26 29 33 37 40 42 43 43 43 44 46 50 54 58 61 68 83 107 130 146 156 162 167 173 180 173 156 161 162 161 161 163 165 166 166 166 168 171 175 181 187 191 194 195 200 203 207 210 211 212 212 213 215 217 220 224 229 234 238 242 244 246 247
355 3 9 13 17 21 24 26 25 25 26 26 26 25 24 24 24 23 23 22 22 21 22 24 28 33 37 40 42 43 43 45 46 49 53 56 60 63 67 77 100 127 146 159 169 176 182 167 119 131 144 145 147 150 153 156 158 159 160 163 168 176 187 197 204 208 211 211 211 211 213 212 211 211 213 215 216 219 223 229 234 239 244 248 250 250
351 357 5 11 16 19 23 25 26 26 27 27 26 25 25 25 25 26 26 25 24 23 22 22 26 32 38 41 43 43 44 45 48 51 55 59 63 66 69 75 90 115 139 156 168 179 193 24 111 136 144 144 144 146 148 149 150 152 157 162 171 182 193 200 204 207 211 214 217 218 218 214 211 210 213 215 217 221 226 233 239 246 251 255 255 254
348 355 1 8 14 19 22 23 25 26 27 26 26 25 25 25 26 28 29 29 28 26 25 24 26 30 36 41 43 45 45 47 49 53 57 62 66 70 74 77 86 107 139 167 187 223 287 345 121 139 146 147 147 149 153 154 155 159 165 173 182 189 195 200 204 208 214 220 226 230 231 224 217 214 214 216 220 225 233 241 249 256 260 262 260 255
346 353 1 8 14 19 21 23 24 25 25 25 25 24 24 25 27 29 30 31 32 31 30 29 29 31 35 40 43 45 47 48 50 54 59 63 68 72 76 80 86 98 149 230 253 273 290 217 136 140 143 145 146 150 156 161 166 171 177 184 190 194 198 203 209 216 223 230 236 240 240 234 227 221 219 222 227 234 244 254 261 266 267 264 258 251
344 352 0 8 14 18 20 21 22 22 22 23 23 23 23 24 26 28 30 32 33 34 34 35 35 35 36 38 42 45 47 48 51 54 59 64 69 73 77 80 83 86 87 82 58 272 235 155 144 142 142 140 140 141 147 157 168 177 184 190 195 199 204 210 217 224 230 235 239 241 241 237 232 229 228 232 239 249 259 267 272 272 268 261 250 240
341 349 358 5 12 15 17 18 17 17 18 19 19 20 21 23 24 26 28 31 33 34 36 37 38 38 37 38 40 43 46 48 49 52 56 62 69 75 79 81 83 83 81 76 72 76 105 140 148 148 147 146 146 148 151 158 166 175 182 189 197 205 210 215 219 222 225 228 232 235 236 236 235 235 238 244 254 264 273 278 278 274 265 251 237 225
334 343 352 360 6 10 12 14 14 14 14 15 16 18 19 21 22 24 26 29 31 33 36 38 39 39 39 39 39 41 44 46 48 49 52 57 67 78 84 85 84 80 72 65 63 68 83 117 143 153 155 156 158 162 167 171 176 180 184 191 200 208 211 213 214 215 216 218 222 226 231 234 239 243 249 257 267 275 281 284 282 271 255 239 226 216
326 335 343 351 358 4 7 10 11 12 12 13 14 15 17 19 21 23 25 27 29 32 34 36 38 39 39 39 39 40 42 44 47 48 49 51 61 76 89 88 78 61 47 41 45 61 81 101 128 148 158 162 165 169 174 178 183 188 192 197 203 207 208 209 210 213 216 218 223 228 235 241 247 252 257 265 273 280 283 286 280 259 238 228 221 214
315 324 333 342 350 356 2 7 9 11 11 12 12 13 15 17 19 22 24 26 28 30 33 35 36 37 38 39 40 41 41 43 45 48 48 48 53 65 82 82 61 40 31 32 44 71 92 97 109 127 143 152 160 168 174 179 183 187 189 192 194 193 192 195 201 208 217 224 231 237 243 248 252 255 258 264 270 275 279 282 271 243 225 220 219 217
304 313 323 332 341 348 356 2 6 9 10 10 10 11 12 15 18 21 23 25 27 29 31 33 34 36 36 38 40 40 41 42 42 44 44 45 47 52 61 61 43 31 29 36 52 75 88 88 94 106 118 126 135 147 161 168 171 169 167 164 161 157 155 161 171 184 197 209 221 230 239 245 248 250 251 255 260 263 266 266 254 232 218 215 216 218
295 302 311 321 330 340 349 356 1 5 8 8 9 9 10 12 15 18 21 23 26 27 29 30 32 33 35 36 38 39 40 41 40 39 38 37 38 41 42 40 33 28 28 36 51 70 78 71 69 83 102 112 120 128 139 146 147 144 144 150 155 158 157 160 165 172 180 193 203 211 217 221 226 231 238 245 248 250 250 247 238 225 215 212 213 216
288 294 301 310 319 330 340 348 355 360 3 5 7 7 8 9 11 13 16 20 23 25 27 27 29 31 33 35 36 38 39 40 40 39 36 33 32 31 30 25 21 23 29 37 51 68 79 73 63 61 79 107 124 132 137 139 139 140 147 159 173 190 211 222 219 211 211 219 215 204 192 188 192 209 225 234 239 240 239 235 229 220 213 210 210 213
283 287 293 299 308 318 328 338 347 353 358 2 4 5 5 6 7 9 11 15 19 22 23 24 26 28 30 32 34 36 37 39 40 41 39 36 33 29 25 18 11 13 21 33 47 62 76 83 84 86 94 127 163 172 166 161 158 160 166 177 193 213 235 254 267 282 295 297 284 257 231 229 234 236 234 233 234 235 235 232 227 221 215 212 211 213
280 282 286 291 298 306 316 326 337 345 352 357 360 1 2 3 4 5 7 9 13 16 18 20 22 24 26 28 30 32 34 36 38 40 40 40 38 34 28 22 13 7 8 20 34 48 61 72 81 94 115 137 160 188 201 199 191 185 183 188 198 212 229 247 265 281 292 296 293 286 278 271 265 257 249 242 239 238 238 236 233 228 223 219 217 217
278 280 282 285 290 296 304 314 324 335 344 350 355 357 358 359 360 1 2 4 7 9 12 15 17 20 22 23 25 27 29 31 33 35 37 38 38 36 33 29 22 14 7 7 16 30 45 57 68 81 104 126 142 152 166 182 191 193 193 194 200 209 221 235 250 265 277 284 287 288 287 283 278 270 262 255 250 248 245 243 241 237 233 229 227 226
277 278 279 281 284 289 295 302 311 321 332 341 347 351 353 354 355 356 357 359 1 4 6 9 13 17 18 19 20 21 23 24 26 28 31 31 32 33 32 30 27 22 15 10 10 17 30 44 57 69 83 103 124 138 145 154 167 179 189 196 202 209 217 227 238 249 260 269 275 280 282 282 279 275 269 265 261 258 256 254 251 247 243 239 236 234
278 278 278 279 281 284 289 294 301 309 319 328 337 342 347 348 349 350 351 354 356 358 1 5 9 13 14 15 16 16 17 18 19 21 23 24 25 26 27 27 25 23 20 17 15 17 22 30 43 56 67 78 91 108 122 134 146 162 179 192 202 210 218 226 234 242 249 256 262 267 271 273 273 272 270 268 267 266 265 264 262 259 255 250 245 242
279 279 279 279 281 283 286 289 294 300 308 316 324 331 336 339 340 341 344 347 350 353 357 0 4 7 9 11 12 12 12 13 13 14 15 16 17 19 20 21 20 20 19 18 18 18 20 22 27 37 49 59 67 74 83 95 111 131 155 178 195 208 218 227 234 240 245 249 253 257 261 265 267 269 269 270 270 271 272 272 271 269 267 262 257 253
281 281 280 280 281 282 284 287 290 294 300 306 312 319 325 329 332 334 336 339 343 347 351 354 357 0 3 6 7 8 8 9 9 9 9 9 10 12 13 14 14 14 15 15 15 15 16 18 18 18 20 26 34 41 48 55 64 78 99 131 167 196 217 229 238 244 247 249 252 255 258 262 266 270 272 274 275 276 276 276 276 275 273 271 267 263
283 282 282 282 282 283 284 286 288 291 294 299 304 309 314 318 322 325 327 330 334 338 342 346 350 353 356 358 360 2 3 5 6 5 4 4 5 6 6 7 7 8 9 10 10 9 10 12 13 12 7 1 357 356 358 1 1 1 358 351 337 313 291 279 274 269 265 262 260 260 261 264 267 271 274 276 278 278 278 277 276 276 275 274 272 270
284 284 283 283 284 283 284 285 286 288 291 294 297 301 305 309 313 315 317 319 323 327 332 336 340 344 347 350 352 355 358 360 1 1 1 0 0 1 1 1 2 2 3 4 4 4 5 5 6 7 5 360 353 347 343 339 335 330 324 319 314 309 306 303 300 297 293 288 283 277 274 271 270 271 272 274 274 274 274 273 273 273 273 273 273 272
284 284 284 285 285 285 285 285 286 287 288 290 293 296 299 302 304 306 308 310 313 317 321 325 330 334 338 341 344 347 350 352 355 357 357 357 356 356 356 357 357 357 357 358 359 359 359 358 358 359 0 359 355 349 344 340 335 330 324 319 315 311 307 304 301 299 297 294 291 288 285 282 279 277 274 272 270 269 267 266 265 265 265 266 267 267
284 284 285 286 286 285 285 285 286 286 287 288 289 291 293 296 298 300 302 303 304 307 311 315 320 324 328 331 335 338 341 344 347 350 352 352 352 351 352 352 353 352 352 352 353 353 353 352 351 351 353 353 352 348 344 340 336 332 327 323 320 315 312 308 305 302 299 297 294 292 290 287 285 283 282 279 277 273 270 267 264 262 260 260 260 260
283 284 285 286 286 286 286 286 285 285 286 286 287 288 290 291 293 295 296 297 299 301 304 308 312 316 319 322 325 328 330 334 337 341 344 345 346 347 346 347 347 347 347 347 347 347 346 346 345 344 344 344 345 343 341 338 334 331 327 323 320 317 314 311 308 306 303 301 298 296 294 292 290 288 286 284 282 280 278 276 273 270 268 266 265 264
282 283 284 285 286 286 286 286 286 285 285 285 285 286 287 288 290 291 292 294 295 297 299 302 306 310 313 315 317 319 321 323 326 330 333 336 338 339 340 341 341 341 341 342 341 341 340 339 338 337 336 335 335 335 334 333 330 327 324 320 317 315 313 311 309 307 305 303 301 299 297 295 293 291 290 288 286 284 282 280 278 277 275 274 274 273
281 282 284 284 285 286 286 286 285 285 284 284 284 284 285 286 287 288 289 291 292 294 296 299 301 305 307 310 311 312 314 315 317 320 323 326 328 330 332 333 334 334 334 334 334 333 332 331 330 329 328 327 326 325 324 323 321 319 317 314 312 310 309 308 307 306 304 302 301 299 298 296 295 294 292 291 289 287 285 283 281 280 278 277 276 276
279 281 282 283 284 285 285 285 285 285 284 284 283 283 284 284 285 286 287 289 290 292 294 296 298 301 303 305 306 307 308 308 310 312 314 317 320 322 325 326 327 328 328 327 327 326 325 323 322 321 320 319 318 316 315 314 313 311 309 307 305 303 302 301 301 301 300 300 299 298 297 295 294 293 291 290 289 288 287 285 284 282 281 279 278 277
277 279 280 282 283 283 284 284 284 284 283 283 283 283 283 283 284 285 286 287 289 290 292 294 297 299 301 302 303 303 303 303 304 306 308 310 313 316 318 320 322 323 324 324 323 321 320 318 317 315 314 313 312 311 309 308 307 305 304 303 301 299 297 296 295 295 295 295 295 295 294 293 292 291 290 289 288 287 286 285 284 283 282 281 280 278
275 277 279 280 281 282 283 283 284 283 283 283 283 282 282 283 283 284 285 286 287 289 291 293 295 297 298 299 300 300 300 300 300 301 303 305 308 310 313 315 318 319 320 321 320 319 318 316 315 313 312 310 308 307 306 305 304 303 302 301 299 298 296 295 294 293 293 292 292 292 291 291 290 290 288 287 286 285 284 283 282 281 281 280 279 279
275 276 277 279 280 281 282 282 283 283 283 283 283 282 282 283 283 284 284 285 286 288 290 292 294 295 296 297 297 297 296 296 297 298 299 302 304 307 310 312 314 316 317 318 318 317 316 315 313 311 310 308 307 305 304 304 303 303 302 300 299 297 296 295 294 293 292 291 291 291 290 289 289 288 287 286 285 284 283 282 281 280 279 279 278 278
274 276 277 278 279 280 281 282 282 282 283 283 283 283 282 282 283 283 284 284 285 287 288 290 292 293 294 295 295 294 293 293 293 294 296 298 302 304 307 310 312 314 315 316 316 315 315 313 311 310 308 306 305 304 303 302 302 301 301 300 299 298 297 296 294 293 292 291 291 291 290 289 288 287 287 286 285 284 283 282 280 279 278 278 277 277
274 275 276 277 279 279 280 281 281 282 282 282 282 282 282 282 282 282 283 283 284 286 287 289 290 291 292 292 292 291 291 290 290 292 293 296 299 302 305 308 310 312 313 314 314 314 313 312 310 309 307 305 303 302 301 301 300 300 300 299 299 298 297 296 295 294 293 292 291 290 290 289 289 288 287 286 285 284 283 282 281 280 279 278 277 277
273 274 276 277 278 279 279 280 281 281 281 282 281 281 281 281 281 281 281 282 283 284 285 286 288 289 289 289 289 288 288 288 288 289 291 294 297 300 303 306 308 310 311 312 312 312 311 310 309 307 306 304 303 301 300 299 298 298 298 298 298 298 297 296 295 295 294 293 291 291 290 290 289 289 288 288 287 286 285 284 283 282 280 279 278 277
271 273 275 276 277 278 278 279 279 280 280 281 281 281 281 281 281 280 281 281 281 282 283 284 285 286 286 286 286 286 285 285 286 287 289 292 295 298 302 305 307 309 310 310 311 310 310 309 307 306 305 304 302 301 300 299 298 298 297 297 297 297 297 296 296 295 294 293 292 292 291 290 290 289 289 288 288 287 286 286 285 283 282 281 280 279
270 271 273 274 275 277 277 278 279 279 280 280 280 280 280 280 280 280 280 280 281 281 281 282 283 283 284 284 284 284 284 284 285 286 288 291 294 297 300 303 306 307 308 309 308 308 307 307 305 305 304 303 302 301 300 299 298 298 297 297 297 296 296 296 296 296 295 294 294 293 292 291 290 290 289 288 288 288 287 287 286 285 284 283 282 281
269 270 272 273 274 276 276 277 278 279 279 280 280 280 280 279 279 280 280 280 280 280 281 281 281 282 282 282 282 282 283 283 285 286 289 291 294 297 300 302 304 306 307 307 307 306 305 304 303 303 303 302 301 301 300 299 299 298 298 297 297 296 296 295 295 295 295 295 295 294 294 293 292 291 290 290 289 288 288 287 287 286 285 284 283 282
267 269 271 272 273 275 276 277 278 278 279 279 279 279 279 279 279 279 279 279 280 280 280 280 281 281 281 281 280 281 282 283 285 287 290 292 295 297 300 301 303 304 305 305 304 304 303 302 301 301 301 301 301 301 300 300 299 298 298 297 297 296 296 295 295 295 295 295 295 295 295 294 294 293 292 292 291 289 289 288 287 287 286 285 284 283
266 268 270 271 272 273 275 275 276 277 278 278 279 279 279 279 279 278 278 278 279 279 279 279 279 279 279 279 280 281 282 284 286 289 292 294 296 298 300 301 301 302 302 302 302 301 300 299 299 299 300 300 300 300 300 300 299 298 298 297 297 296 295 295 295 295 295 295 295 295 295 295 295 295 294 294 292 291 290 289 288 287 286 286 285 284
266 267 269 270 271 272 273 274 275 276 277 278 278 278 279 279 278 278 278 277 277 277 277 277 277 278 278 278 280 282 284 286 289 291 293 295 297 298 299 299 300 300 299 299 298 297 297 296 297 297 298 299 299 299 300 299 299 298 298 297 296 295 295 295 294 294 294 294 294 295 295 296 296 296 296 295 294 293 291 290 289 288 287 286 285 284
265 266 268 269 270 271 272 273 274 275 276 277 277 278 278 278 278 277 277 276 276 275 275 276 276 276 278 279 281 284 286 289 291 293 295 296 296 297 297 297 297 297 297 296 295 294 293 294 294 295 297 298 298 299 299 299 299 298 297 296 295 295 294 294 294 294 294 294 294 295 295 296 296 296 296 296 295 294 293 292 290 289 287 286 285 284
264 265 266 268 269 270 271 272 273 274 275 276 276 277 277 277 276 276 275 275 274 274 274 274 275 277 278 281 283 286 289 291 293 294 295 295 296 296 296 296 295 294 294 293 292 291 291 292 293 294 296 297 298 299 299 298 298 297 297 296 295 294 294 293 293 293 294 294 294 295 295 296 296 296 296 296 296 295 294 293 292 290 288 287 286 285
262 264 265 267 268 269 269 270 271 272 273 274 275 276 276 276 275 275 274 273 273 273 273 273 275 277 280 283 286 288 291 292 294 294 295 295 295 295 294 294 293 292 291 290 289 289 289 291 292 294 296 297 298 299 298 298 297 296 295 294 294 294 293 293 293 293 293 293 294 294 295 296 296 296 297 297 296 296 295 294 293 291 290 288 287 285
Height
5669 5667 5666 5665 5664 5662 5661 5659 5657 5656 5654 5652 5650 5647 5645 5643 5640 5637 5635 5632 5629 5627 5624 5622 5620 5617 5615 5612 5610 5607 5605 5604 5603 5602 5600 5598 5597 5596 5595 5595 5595 5595 5595 5595 5597 5598 5600 5603 5606 5610 5613 5615 5617 5620 5623 5625 5627 5630 5635 5643 5651 5655 5652 5653 5655 5657 5661 5665 5668 5671 5673 5674 5676 5677 5679 5680 5682 5685 5687 5687 5686 5686 5687 5688 5688 5688
5668 5667 5665 5664 5663 5662 5660 5659 5657 5656 5654 5652 5650 5648 5646 5643 5641 5638 5635 5633 5631 5629 5626 5624 5622 5620 5617 5615 5612 5610 5608 5607 5606 5605 5604 5603 5602 5601 5600 5600 5600 5600 5601 5601 5603 5604 5606 5608 5610 5613 5615 5618 5620 5623 5625 5625 5629 5634 5639 5647 5651 5652 5651 5652 5655 5658 5661 5665 5668 5671 5672 5674 5675 5677 5679 5682 5684 5685 5684 5684 5684 5685 5685 5685 5686 5686
5668 5666 5665 5664 5663 5662 5660 5659 5657 5656 5654 5652 5650 5648 5646 5644 5642 5639 5636 5635 5632 5630 5628 5626 5624 5622 5620 5617 5615 5613 5611 5610 5609 5609 5607 5607 5606 5605 5605 5605 5605 5606 5606 5607 5607 5609 5610 5612 5614 5616 5618 5620 5622 5624 5626 5629 5633 5638 5643 5647 5650 5650 5651 5653 5656 5660 5663 5667 5670 5671 5672 5673 5675 5677 5679 5681 5682 5682 5682 5682 5682 5683 5683 5684 5684 5685
5667 5666 5665 5664 5663 5662 5660 5659 5658 5656 5655 5653 5650 5649 5647 5645 5643 5640 5638 5636 5634 5632 5630 5628 5626 5624 5622 5620 5618 5617 5615 5613 5612 5611 5610 5610 5609 5609 5609 5610 5610 5611 5611 5612 5612 5613 5614 5616 5617 5619 5621 5622 5625 5627 5629 5632 5636 5641 5646 5647 5650 5652 5653 5655 5658 5662 5666 5668 5669 5670 5671 5673 5675 5678 5679 5680 5681 5681 5680 5680 5680 5680 5681 5682 5683 5683
5667 5666 5665 5664 5663 5662 5660 5659 5658 5656 5655 5653 5651 5649 5647 5645 5643 5641 5639 5637 5635 5634 5632 5630 5628 5626 5624 5622 5621 5620 5619 5617 5615 5614 5613 5612 5612 5612 5612 5613 5614 5615 5615 5616 5617 5617 5617 5619 5620 5622 5624 5625 5627 5630 5632 5635 5638 5643 5647 5649 5652 5654 5656 5657 5660 5664 5666 5667 5668 5670 5672 5675 5677 5678 5679 5680 5679 5679 5678 5678 5679 5679 5680 5680 5681 5682
5667 5666 5665 5664 5663 5662 5660 5659 5658 5656 5655 5653 5651 5650 5648 5646 5644 5642 5640 5638 5636 5635 5633 5631 5630 5628 5626 5625 5624 5622 5621 5620 5617 5615 5615 5615 5615 5615 5615 5616 5616 5617 5618 5619 5620 5620 5621 5621 5623 5625 5626 5628 5630 5631 5634 5637 5640 5644 5648 5650 5653 5655 5656 5659 5662 5664 5666 5667 5669 5672 5674 5675 5676 5677 5678 5677 5677 5677 5676 5677 5677 5678 5678 5679 5680 5680
5667 5666 5665 5664 5663 5662 5660 5659 5658 5657 5655 5654 5652 5650 5649 5647 5645 5643 5641 5640 5638 5636 5635 5633 5631 5630 5628 5627 5625 5624 5622 5620 5619 5617 5617 5617 5617 5617 5618 5618 5619 5619 5619 5620 5620 5621 5623 5624 5625 5627 5628 5630 5631 5633 5635 5638 5641 5645 5648 5650 5653 5655 5657 5660 5662 5664 5666 5668 5670 5672 5673 5674 5674 5675 5675 5675 5675 5675 5675 5675 5675 5676 5677 5678 5678 5679
5667 5666 5665 5664 5663 5662 5661 5660 5658 5657 5656 5655 5653 5651 5650 5648 5646 5644 5642 5640 5639 5637 5636 5635 5633 5632 5630 5629 5627 5625 5624 5622 5621 5620 5619 5619 5619 5619 5620 5620 5621 5621 5621 5621 5621 5622 5623 5625 5626 5627 5629 5630 5631 5633 5636 5640 5643 5647 5649 5651 5653 5655 5658 5661 5663 5665 5667 5668 5669 5670 5671 5672 5673 5674 5673 5672 5672 5672 5673 5674 5674 5675 5676 5676 5677 5678
5667 5666 5665 5664 5663 5662 5661 5660 5659 5657 5656 5655 5654 5652 5650 5649 5647 5645 5644 5642 5640 5638 5637 5636 5635 5634 5632 5631 5630 5628 5627 5625 5624 5622 5621 5621 5621 5621 5622 5622 5622 5622 5622 5622 5622 5622 5623 5624 5625 5627 5630 5631 5633 5635 5639 5643 5646 5650 5651 5653 5655 5658 5661 5664 5665 5665 5665 5666 5668 5669 5670 5671 5671 5671 5670 5670 5670 5671 5672 5673 5673 5674 5675 5675 5675 5676
5666 5666 5665 5665 5664 5663 5661 5660 5659 5658 5656 5655 5654 5653 5651 5650 5648 5646 5645 5643 5641 5640 5638 5637 5636 5635 5634 5633 5632 5630 5629 5628 5626 5625 5624 5623 5623 5623 5624 5624 5624 5624 5624 5624 5623 5623 5623 5623 5625 5630 5632 5632 5634 5637 5641 5645 5649 5652 5654 5656 5659 5663 5665 5665 5664 5664 5665 5666 5667 5668 5668 5669 5668 5668 5668 5668 5669 5670 5671 5671 5672 5672 5673 5673 5674 5674
5666 5666 5665 5665 5664 5663 5662 5661 5660 5658 5657 5655 5655 5654 5652 5651 5650 5648 5646 5644 5642 5641 5640 5638 5637 5637 5636 5635 5634 5633 5632 5630 5629 5628 5627 5626 5625 5625 5625 5625 5626 5625 5625 5625 5625 5625 5625 5624 5627 5631 5635 5638 5640 5642 5645 5650 5653 5655 5658 5661 5665 5666 5665 5663 5662 5664 5665 5666 5666 5666 5666 5666 5666 5666 5667 5667 5668 5669 5669 5670 5670 5670 5671 5671 5672 5672
5665 5665 5665 5664 5664 5663 5662 5661 5660 5659 5657 5656 5655 5655 5654 5652 5651 5649 5647 5645 5644 5642 5641 5640 5638 5638 5637 5636 5636 5635 5634 5633 5632 5631 5630 5629 5628 5627 5627 5627 5628 5627 5627 5627 5627 5627 5627 5627 5630 5634 5637 5641 5645 5649 5651 5655 5656 5658 5661 5663 5663 5662 5661 5660 5662 5664 5664 5664 5664 5665 5666 5666 5665 5665 5666 5667 5667 5668 5668 5668 5668 5669 5669 5670 5670 5670
5665 5665 5664 5664 5663 5663 5662 5661 5660 5659 5658 5658 5657 5656 5655 5654 5652 5650 5649 5647 5645 5644 5642 5641 5640 5639 5638 5637 5637 5636 5636 5635 5635 5634 5633 5631 5630 5630 5630 5629 5629 5629 5629 5629 5628 5629 5630 5630 5633 5637 5640 5643 5645 5648 5650 5654 5657 5659 5660 5659 5658 5658 5659 5661 5662 5663 5663 5662 5663 5663 5664 5665 5665 5665 5665 5666 5667 5667 5667 5667 5667 5667 5668 5668 5668 5669
5665 5665 5664 5664 5663 5663 5662 5661 5661 5660 5659 5658 5658 5656 5655 5654 5653 5652 5650 5648 5647 5645 5644 5642 5641 5640 5639 5639 5638 5638 5638 5637 5637 5636 5635 5634 5633 5632 5632 5631 5631 5631 5631 5631 5631 5631 5631 5632 5634 5638 5642 5646 5648 5649 5650 5653 5655 5655 5656 5655 5656 5658 5660 5661 5661 5662 5661 5661 5661 5662 5662 5662 5663 5664 5665 5665 5665 5665 5665 5665 5665 5666 5666 5666 5667 5667
5665 5664 5664 5664 5663 5663 5662 5662 5661 5660 5660 5659 5658 5657 5656 5655 5654 5652 5651 5650 5648 5647 5645 5643 5642 5641 5641 5640 5640 5639 5639 5639 5638 5638 5637 5637 5636 5635 5635 5634 5634 5633 5633 5633 5633 5633 5633 5634 5635 5639 5643 5648 5651 5653 5653 5653 5653 5652 5653 5655 5656 5658 5659 5660 5660 5660 5660 5659 5660 5660 5660 5661 5662 5663 5663 5664 5664 5664 5664 5664 5665 5665 5665 5665 5666 5666
5665 5664 5664 5664 5663 5663 5663 5662 5661 5661 5660 5659 5658 5657 5656 5655 5654 5653 5652 5650 5649 5648 5646 5645 5643 5643 5642 5642 5641 5640 5640 5640 5640 5640 5639 5639 5638 5637 5637 5636 5636 5635 5635 5635 5636 5636 5636 5635 5637 5639 5642 5646 5650 5651 5651 5651 5651 5652 5654 5655 5656 5658 5659 5659 5659 5658 5658 5658 5658 5659 5660 5660 5661 5661 5662 5662 5662 5663 5663 5664 5664 5664 5665 5665 5665 5666
5664 5664 5664 5664 5663 5663 5663 5662 5662 5661 5660 5660 5659 5658 5657 5656 5655 5654 5653 5651 5650 5649 5648 5646 5645 5644 5644 5643 5642 5642 5642 5642 5642 5641 5641 5640 5640 5639 5638 5637 5637 5636 5636 5636 5638 5639 5639 5639 5639 5640 5643 5645 5647 5649 5650 5651 5652 5653 5654 5655 5656 5657 5658 5658 5658 5658 5657 5658 5658 5659 5659 5660 5660 5660 5661 5661 5661 5662 5663 5663 5664 5664 5664 5665 5665 5665
5664 5664 5664 5663 5663 5663 5663 5662 5662 5661 5661 5660 5659 5658 5658 5657 5656 5655 5654 5653 5652 5650 5649 5648 5647 5646 5645 5645 5644 5644 5643 5643 5643 5643 5642 5642 5641 5641 5640 5639 5638 5637 5637 5637 5639 5641 5642 5641 5641 5642 5643 5645 5647 5649 5650 5651 5652 5653 5654 5655 5655 5656 5656 5657 5657 5657 5657 5657 5658 5658 5659 5659 5659 5660 5660 5660 5661 5662 5663 5663 5664 5664 5665 5665 5665 5665
5664 5664 5664 5663 5663 5663 5663 5662 5662 5661 5661 5660 5660 5659 5658 5657 5656 5655 5655 5654 5653 5652 5651 5650 5649 5648 5647 5646 5645 5645 5644 5644 5644 5644 5643 5643 5643 5642 5641 5640 5640 5639 5639 5639 5640 5641 5642 5643 5643 5643 5644 5645 5646 5648 5649 5650 5651 5652 5653 5655 5655 5654 5655 5655 5655 5656 5657 5657 5658 5658 5658 5658 5659 5659 5659 5660 5661 5662 5663 5663 5663 5664 5665 5665 5665 5666
5663 5663 5663 5663 5663 5663 5662 5662 5662 5662 5661 5661 5660 5659 5658 5657 5657 5656 5655 5655 5654 5653 5652 5651 5650 5649 5648 5648 5647 5646 5645 5645 5645 5645 5644 5644 5644 5644 5643 5642 5641 5641 5641 5641 5642 5642 5644 5644 5644 5645 5645 5645 5646 5647 5648 5650 5651 5652 5653 5654 5655 5654 5654 5655 5655 5655 5656 5656 5656 5657 5657 5658 5658 5658 5659 5660 5660 5661 5662 5663 5663 5664 5665 5665 5666 5666
5663 5663 5663 5663 5663 5663 5662 5662 5662 5662 5661 5661 5660 5660 5659 5658 5657 5656 5656 5655 5655 5654 5653 5653 5652 5651 5650 5649 5648 5647 5646 5646 5646 5645 5645 5645 5645 5645 5645 5644 5644 5643 5643 5644 5644 5645 5645 5646 5645 5646 5646 5646 5646 5647 5648 5648 5649 5650 5651 5651 5652 5654 5655 5655 5655 5655 5655 5655 5655 5656 5657 5657 5658 5658 5659 5659 5660 5660 5661 5662 5663 5663 5664 5665 5665 5666
5662 5662 5662 5662 5662 5663 5662 5662 5662 5661 5661 5661 5660 5660 5659 5658 5658 5657 5656 5656 5655 5655 5654 5654 5653 5652 5651 5650 5650 5648 5648 5647 5647 5647 5646 5646 5646 5646 5646 5645 5645 5645 5645 5646 5646 5646 5647 5647 5647 5647 5647 5647 5647 5647 5647 5648 5648 5649 5650 5651 5651 5652 5653 5654 5655 5655 5655 5655 5655 5656 5656 5657 5658 5658 5658 5658 5659 5660 5661 5661 5662 5663 5663 5664 5665 5665
5661 5661 5661 5662 5662 5662 5662 5662 5662 5661 5661 5661 5661 5660 5660 5659 5658 5658 5657 5656 5656 5655 5655 5655 5654 5653 5652 5651 5650 5650 5649 5649 5648 5648 5648 5647 5647 5647 5647 5647 5647 5647 5647 5647 5648 5648 5648 5648 5648 5648 5648 5648 5649 5649 5649 5650 5650 5651 5652 5652 5653 5653 5654 5654 5654 5654 5655 5655 5655 5656 5657 5657 5657 5657 5657 5658 5659 5660 5660 5661 5661 5662 5662 5663 5663 5664
5660 5660 5660 5661 5661 5661 5661 5661 5661 5661 5661 5661 5660 5660 5660 5659 5659 5658 5657 5657 5656 5656 5655 5655 5654 5654 5653 5652 5652 5651 5650 5650 5650 5649 5649 5648 5648 5649 5648 5648 5648 5648 5648 5648 5648 5649 5649 5649 5649 5649 5649 5650 5650 5650 5651 5651 5651 5652 5653 5654 5654 5655 5655 5655 5654 5654 5655 5655 5656 5657 5657 5657 5657 5657 5657 5658 5658 5659 5660 5660 5661 5661 5662 5662 5662 5663
5659 5659 5660 5660 5660 5660 5660 5661 5661 5661 5661 5660 5660 5660 5660 5659 5659 5658 5658 5657 5657 5656 5656 5655 5655 5654 5654 5653 5653 5652 5651 5651 5650 5650 5650 5650 5650 5650 5650 5649 5649 5649 5649 5649 5649 5649 5649 5650 5650 5650 5650 5650 5650 5651 5651 5651 5652 5652 5653 5654 5654 5655 5655 5655 5655 5655 5655 5656 5656 5657 5657 5657 5657 5657 5657 5657 5658 5658 5659 5659 5660 5660 5661 5661 5662 5662
5658 5658 5658 5659 5659 5659 5660 5660 5660 5660 5660 5660 5660 5660 5660 5660 5659 5659 5658 5658 5657 5657 5656 5655 5655 5654 5654 5654 5653 5653 5652 5652 5651 5651 5651 5650 5650 5650 5650 5650 5650 5650 5650 5650 5650 5650 5650 5650 5650 5650 5650 5651 5651 5651 5651 5652 5652 5653 5653 5654 5654 5655 5655 5655 5656 5656 5656 5656 5656 5656 5656 5656 5656 5656 5656 5657 5657 5657 5658 5659 5659 5660 5660 5660 5661 5661
5656 5657 5657 5657 5658 5658 5659 5659 5659 5660 5660 5660 5660 5660 5660 5660 5660 5659 5659 5658 5658 5657 5656 5655 5655 5655 5654 5654 5654 5654 5653 5653 5652 5652 5651 5651 5651 5651 5651 5651 5650 5650 5650 5650 5650 5650 5650 5651 5651 5651 5651 5651 5652 5652 5652 5653 5653 5653 5654 5654 5654 5655 5655 5655 5655 5655 5655 5655 5655 5655 5655 5655 5655 5655 5655 5656 5656 5657 5657 5658 5658 5659 5659 5660 5660 5660
5655 5655 5656 5656 5657 5657 5657 5658 5658 5659 5659 5659 5659 5659 5659 5659 5659 5659 5659 5658 5658 5657 5656 5656 5655 5655 5655 5655 5654 5654 5654 5654 5653 5652 5652 5652 5651 5651 5651 5651 5651 5651 5651 5651 5651 5651 5651 5651 5652 5652 5652 5652 5652 5652 5653 5653 5653 5653 5654 5654 5654 5654 5655 5655 5655 5655 5655 5655 5655 5655 5655 5655 5655 5655 5655 5655 5656 5656 5657 5657 5658 5658 5659 5659 5659 5660
5654 5654 5654 5655 5655 5656 5656 5657 5657 5657 5658 5658 5658 5658 5659 5659 5659 5659 5659 5659 5658 5658 5657 5656 5656 5656 5655 5655 5655 5655 5655 5654 5654 5653 5652 5652 5652 5652 5652 5651 5651 5651 5651 5651 5651 5651 5651 5651 5652 5652 5652 5653 5653 5653 5653 5653 5653 5653 5654 5654 5654 5654 5654 5654 5655 5655 5655 5655 5655 5655 5655 5655 5655 5655 5655 5655 5656 5656 5656 5657 5657 5657 5658 5658 5658 5658
5652 5653 5653 5653 5654 5654 5655 5655 5656 5656 5657 5657 5657 5657 5658 5658 5658 5658 5658 5658 5658 5658 5657 5657 5656 5656 5656 5655 5655 5655 5655 5654 5654 5653 5653 5653 5652 5652 5652 5652 5652 5651 5651 5651 5651 5651 5651 5651 5652 5652 5652 5653 5653 5653 5653 5653 5653 5654 5654 5654 5654 5654 5654 5654 5654 5654 5654 5655 5655 5655 5655 5655 5655 5655 5655 5655 5655 5655 5656 5656 5656 5656 5656 5657 5657 5657
5651 5651 5652 5652 5652 5653 5653 5654 5655 5655 5655 5656 5656 5656 5656 5657 5657 5657 5657 5657 5658 5658 5657 5657 5656 5656 5656 5655 5655 5655 5655 5655 5654 5654 5654 5653 5653 5652 5652 5652 5652 5652 5651 5651 5651 5651 5651 5651 5651 5652 5652 5652 5653 5653 5653 5653 5653 5653 5653 5654 5654 5654 5654 5654 5654 5654 5654 5654 5654 5654 5655 5655 5655 5655 5655 5655 5655 5655 5655 5655 5656 5656 5656 5656 5656 5656
5650 5650 5650 5651 5651 5651 5652 5653 5653 5654 5654 5655 5655 5655 5655 5655 5656 5656 5656 5657 5657 5657 5657 5657 5656 5656 5656 5655 5655 5655 5655 5655 5655 5654 5654 5654 5654 5653 5653 5652 5652 5652 5651 5651 5651 5651 5651 5651 5651 5651 5651 5652 5652 5652 5653 5653 5653 5653 5653 5653 5653 5653 5653 5654 5654 5654 5654 5654 5654 5654 5654 5654 5654 5654 5654 5654 5654 5654 5655 5655 5655 5655 5655 5655 5655 5656
5649 5649 5649 5650 5650 5650 5651 5651 5652 5652 5653 5653 5653 5654 5654 5655 5655 5655 5655 5655 5656 5656 5656 5656 5656 5656 5655 5655 5655 5655 5655 5655 5655 5654 5654 5654 5654 5654 5653 5653 5653 5652 5652 5652 5652 5651 5651 5651 5651 5651 5651 5651 5651 5651 5652 5652 5652 5652 5652 5652 5653 5653 5653 5653 5653 5653 5653 5653 5653 5653 5653 5653 5653 5653 5653 5653 5653 5653 5653 5653 5654 5654 5654 5654 5654 5655
5648 5648 5648 5648 5649 5649 5650 5650 5650 5651 5651 5652 5652 5652 5653 5653 5654 5654 5654 5655 5655 5655 5655 5655 5655 5655 5655 5655 5655 5655 5655 5655 5654 5654 5654 5654 5654 5654 5654 5654 5653 5653 5652 5652 5652 5652 5651 5651 5651 5651 5651 5651 5651 5651 5651 5651 5651 5651 5652 5652 5652 5652 5652 5652 5652 5652 5652 5652 5652 5652 5652 5652 5652 5652 5652 5652 5652 5652 5652 5652 5652 5652 5653 5653 5653 5653
5647 5647 5647 5647 5648 5648 5648 5649 5649 5650 5650 5650 5651 5651 5651 5652 5652 5653 5653 5653 5653 5654 5654 5654 5654 5654 5654 5654 5654 5654 5654 5654 5654 5653 5653 5654 5654 5654 5654 5654 5653 5653 5653 5652 5652 5652 5652 5651 5651 5651 5651 5651 5651 5650 5650 5650 5650 5650 5651 5651 5651 5651 5651 5651 5651 5651 5651 5651 5651 5651 5651 5651 5651 5651 5651 5651 5651 5651 5651 5651 5651 5651 5651 5651 5651 5651
5646 5646 5646 5646 5647 5647 5647 5648 5648 5648 5649 5649 5650 5650 5650 5650 5651 5651 5651 5652 5652 5652 5653 5653 5653 5653 5653 5653 5653 5653 5653 5653 5653 5653 5653 5653 5653 5653 5653 5653 5653 5653 5653 5652 5652 5652 5652 5651 5651 5651 5651 5651 5650 5650 5650 5650 5650 5650 5650 5650 5650 5650 5650 5650 5650 5650 5650 5650 5650 5650 5650 5650 5650 5650 5650 5650 5650 5650 5650 5650 5650 5650 5650 5650 5650 5650
5645 5645 5645 5645 5646 5646 5646 5647 5647 5647 5647 5648 5648 5648 5649 5649 5650 5650 5650 5650 5651 5651 5651 5651 5652 5652 5652 5652 5652 5652 5652 5651 5651 5651 5651 5652 5652 5652 5652 5652 5652 5652 5652 5652 5652 5651 5651 5651 5650 5650 5650 5650 5650 5650 5650 5650 5649 5649 5649 5649 5649 5649 5649 5649 5649 5649 5649 5649 5648 5648 5648 5648 5648 5648 5648 5648 5649 5649 5648 5648 5648 5648 5648 5648 5648 5648
5644 5644 5644 5645 5645 5645 5645 5645 5646 5646 5646 5646 5647 5647 5647 5648 5648 5649 5649 5649 5649 5650 5650 5650 5650 5650 5650 5650 5650 5650 5650 5650 5650 5650 5650 5650 5650 5650 5651 5651 5651 5651 5651 5651 5651 5651 5650 5650 5650 5650 5649 5649 5649 5649 5649 5649 5649 5648 5648 5648 5648 5648 5647 5647 5647 5647 5647 5647 5647 5647 5647 5647 5647 5647 5647 5647 5647 5647 5647 5647 5647 5647 5647 5647 5647 5647
5642 5643 5643 5643 5644 5644 5644 5645 5645 5645 5645 5645 5645 5646 5646 5646 5647 5647 5647 5648 5648 5648 5648 5649 5649 5649 5649 5649 5649 5649 5649 5649 5649 5649 5649 5649 5649 5649 5649 5650 5650 5650 5650 5650 5650 5650 5650 5649 5649 5649 5648 5648 5648 5648 5648 5647 5647 5647 5647 5647 5646 5646 5646 5646 5646 5646 5646 5645 5645 5645 5645 5645 5645 5645 5645 5645 5645 5645 5645 5645 5645 5645 5645 5645 5645 5645
5640 5641 5641 5642 5642 5643 5643 5643 5644 5644 5644 5644 5645 5645 5645 5645 5645 5646 5646 5646 5646 5647 5647 5647 5647 5647 5647 5647 5647 5648 5648 5648 5648 5648 5648 5647 5647 5647 5648 5648 5648 5648 5648 5648 5648 5648 5649 5648 5648 5647 5647 5647 5646 5646 5646 5646 5646 5646 5645 5645 5645 5645 5645 5645 5645 5645 5644 5644 5644 5644 5644 5644 5644 5644 5643 5643 5643 5643 5643 5643 5643 5643 5643 5643 5643 5643
5639 5639 5640 5640 5641 5641 5641 5642 5642 5642 5643 5643 5643 5644 5644 5644 5644 5645 5645 5645 5645 5645 5645 5645 5645 5645 5645 5646 5646 5646 5646 5646 5646 5646 5646 5646 5646 5646 5646 5646 5646 5646 5646 5646 5646 5646 5647 5647 5646 5646 5646 5646 5645 5645 5645 5645 5645 5645 5644 5644 5644 5644 5644 5643 5643 5643 5643 5643 5643 5643 5642 5642 5642 5642 5642 5642 5641 5641 5641 5641 5641 5641 5641 5641 5641 5641
5637 5638 5638 5639 5639 5639 5640 5640 5640 5641 5641 5641 5642 5642 5642 5643 5643 5643 5643 5644 5644 5644 5644 5644 5644 5644 5644 5644 5644 5644 5644 5645 5645 5645 5645 5645 5645 5645 5645 5645 5645 5645 5645 5645 5645 5645 5645 5645 5645 5645 5645 5644 5644 5644 5643 5643 5643 5643 5643 5643 5642 5642 5642 5642 5642 5642 5642 5641 5641 5641 5641 5641 5640 5640 5640 5640 5640 5640 5639 5639 5639 5639 5639 5639 5639 5639
5636 5636 5636 5637 5637 5637 5638 5638 5639 5639 5640 5640 5640 5640 5641 5641 5641 5641 5642 5642 5642 5642 5642 5642 5642 5643 5643 5643 5643 5643 5643 5643 5643 5643 5643 5643 5643 5643 5643 5643 5643 5643 5643 5643 5643 5643 5643 5643 5643 5643 5643 5643 5642 5642 5642 5642 5642 5641 5641 5641 5641 5641 5640 5640 5640 5640 5640 5640 5640 5640 5640 5639 5639 5639 5638 5638 5638 5638 5637 5637 5637 5637 5637 5637 5637 5637
5634 5635 5635 5635 5635 5636 5636 5636 5637 5637 5638 5638 5639 5639 5639 5639 5639 5640 5640 5640 5640 5640 5640 5640 5640 5641 5641 5641 5641 5641 5641 5641 5641 5641 5641 5642 5642 5642 5641 5641 5641 5641 5641 5641 5641 5641 5641 5641 5641 5641 5641 5641 5640 5640 5640 5640 5640 5640 5640 5640 5639 5639 5639 5639 5639 5638 5638 5638 5638 5638 5638 5638 5637 5637 5637 5636 5636 5636 5635 5635 5635 5635 5635 5635 5635 5635
5632 5633 5633 5633 5634 5634 5635 5635 5635 5635 5636 5636 5637 5637 5637 5637 5637 5638 5638 5638 5638 5638 5638 5639 5639 5639 5639 5639 5640 5640 5640 5640 5640 5640 5640 5640 5640 5640 5640 5640 5640 5640 5639 5639 5639 5639 5639 5639 5639 5639 5639 5639 5639 5639 5639 5638 5638 5638 5638 5638 5638 5637 5637 5637 5637 5637 5636 5636 5636 5636 5636 5636 5635 5635 5635 5635 5635 5634 5634 5633 5633 5633 5632 5632 5632 5632
5630 5631 5631 5632 5632 5632 5633 5633 5634 5634 5634 5635 5635 5635 5635 5635 5635 5636 5636 5636 5636 5636 5636 5636 5637 5637 5637 5637 5638 5638 5638 5638 5638 5638 5638 5638 5638 5638 5638 5638 5638 5638 5638 5637 5637 5637 5637 5637 5637 5637 5637 5637 5637 5637 5637 5637 5636 5636 5636 5636 5636 5635 5635 5635 5635 5635 5635 5635 5634 5634 5634 5634 5634 5633 5633 5633 5633 5632 5632 5631 5631 5631 5630 5630 5630 5630
5628 5629 5629 5630 5630 5630 5631 5631 5631 5632 5632 5632 5633 5633 5633 5633 5634 5634 5634 5634 5634 5635 5635 5635 5635 5635 5635 5635 5636 5636 5636 5636 5636 5636 5636 5636 5636 5636 5636 5636 5636 5636 5636 5636 5635 5635 5635 5635 5635 5635 5635 5635 5635 5635 5635 5635 5635 5635 5634 5634 5634 5634 5634 5633 5633 5633 5633 5632 5632 5632 5632 5632 5631 5631 5631 5631 5631 5630 5630 5630 5629 5629 5628 5628 5628 5628
5626 5627 5627 5628 5628 5629 5629 5629 5630 5630 5630 5630 5631 5631 5631 5631 5631 5632 5632 5632 5632 5633 5633 5633 5633 5633 5633 5633 5634 5634 5634 5634 5635 5635 5635 5634 5634 5634 5634 5634 5634 5634 5634 5634 5634 5633 5633 5633 5633 5633 5633 5633 5632 5632 5632 5633 5633 5632 5632 5632 5632 5632 5631 5631 5631 5631 5631 5630 5630 5630 5630 5630 5630 5630 5629 5629 5629 5629 5628 5628 5627 5627 5626 5626 5625 5625
5624 5625 5625 5625 5626 5626 5627 5627 5627 5628 5628 5628 5629 5629 5629 5629 5629 5630 5630 5630 5630 5630 5631 5631 5631 5631 5631 5631 5632 5632 5632 5632 5633 5633 5632 5632 5632 5632 5632 5632 5632 5632 5632 5632 5631 5631 5631 5631 5631 5630 5630 5630 5630 5630 5630 5630 5630 5630 5630 5630 5630 5630 5630 5629 5629 5629 5629 5628 5628 5628 5628 5628 5627 5627 5627 5627 5626 5626 5626 5626 5625 5625 5624 5624 5624 5623
5622 5622 5623 5623 5624 5624 5625 5625 5625 5625 5626 5626 5626 5626 5626 5627 5627 5627 5627 5628 5628 5629 5629 5629 5629 5629 5629 5629 5630 5630 5630 5630 5630 5630 5630 5630 5630 5630 5630 5629 5629 5630 5630 5630 5630 5630 5630 5629 5629 5629 5628 5628 5628 5628 5628 5628 5628 5628 5628 5627 5627 5627 5627 5627 5627 5626 5626 5626 5626 5626 5626 5625 5625 5625 5625 5625 5624 5624 5624 5623 5623 5622 5622 5621 5621 5621
5619 5620 5620 5621 5621 5622 5622 5623 5623 5623 5624 5624 5624 5624 5625 5625 5625 5625 5625 5626 5626 5626 5627 5627 5627 5627 5627 5627 5627 5628 5628 5628 5628 5628 5628 5628 5627 5627 5627 5627 5627 5627 5627 5627 5627 5627 5627 5627 5627 5626 5626 5626 5626 5626 5626 5626 5626 5625 5625 5625 5625 5625 5625 5625 5624 5624 5624 5624 5624 5624 5624 5623 5623 5623 5623 5623 5622 5622 5621 5621 5620 5620 5620 5619 5619 5618